DW4959 Weather Reports


time (UTC)temp
F
wind
direction
speed
knots
gust
knots
rain 1hr
in
rain 24hr
in
rain mn
in
humidity
%
barometer
mb
20260506114045 51 331 0.9 2.6 0.00 0.01 0.00 79 1015.4
20260506113525 51 72 0.9 1.7 0.00 0.01 0.00 79 1015.4
20260506113036 52 135 0.9 1.7 0.00 0.01 0.00 78 1015.3
20260506112604 52 79 0.9 1.7 0.00 0.01 0.00 78 1015.3
20260506112045 52 223 0.9 1.7 0.00 0.01 0.00 77 1015.3
20260506111546 52 286 0.9 1.7 0.00 0.01 0.00 77 1015.3
20260506111027 52 331 0.0 1.7 0.00 0.01 0.00 76 1015.2
20260506110554 53 295 0.0 1.7 0.00 0.01 0.00 76 1015.1
20260506110042 53 233 0.0 0.9 0.00 0.01 0.00 75 1015.1
20260506105614 53 223 0.0 1.7 0.00 0.01 0.00 74 1015.1
20260506105032 53 269 0.9 1.7 0.00 0.01 0.00 73 1015.0
20260506104600 54 1 0.0 2.6 0.00 0.01 0.00 73 1015.0
20260506104049 54 324 1.7 2.6 0.00 0.01 0.00 73 1015.0
20260506103531 54 314 1.7 2.6 0.00 0.01 0.00 72 1014.9
20260506103034 54 340 0.9 4.3 0.00 0.01 0.00 72 1014.9
20260506102534 54 279 1.7 4.3 0.00 0.01 0.00 72 1014.9
20260506102024 55 309 1.7 2.6 0.00 0.01 0.00 73 1014.9
20260506101536 55 1 0.9 1.7 0.00 0.01 0.00 72 1014.8
20260506101040 55 314 0.9 3.5 0.00 0.01 0.00 72 1014.8
20260506100534 55 310 0.9 3.5 0.00 0.01 0.00 71 1014.8
20260506100033 55 288 1.7 3.5 0.00 0.01 0.00 71 1014.8
20260506095523 55 295 2.6 3.5 0.00 0.04 0.00 71 1014.8
20260506095033 55 304 2.6 3.5 0.00 0.04 0.00 71 1014.7
20260506094538 55 272 2.6 4.3 0.00 0.04 0.00 71 1014.7
20260506094037 55 278 3.5 4.3 0.00 0.04 0.00 71 1014.8
20260506093547 55 274 2.6 3.5 0.00 0.04 0.00 73 1014.7
20260506093030 55 276 1.7 1.7 0.00 0.04 0.00 74 1014.7
20260506092534 55 233 0.9 1.7 0.00 0.04 0.00 74 1014.7
20260506092037 55 324 0.9 1.7 0.00 0.04 0.00 73 1014.7
20260506091537 55 314 0.9 1.7 0.00 0.04 0.00 73 1014.7
20260506091108 55 89 0.9 1.7 0.00 0.04 0.00 73 1014.7
20260506090550 55 360 0.9 1.7 0.00 0.04 0.00 72 1014.7
20260506090033 55 324 0.9 1.7 0.00 0.04 0.00 72 1014.7
20260506085537 56 1 1.7 1.7 0.00 0.06 0.00 72 1014.8
20260506085047 56 35 0.9 1.7 0.00 0.06 0.00 72 1014.7
20260506084549 56 1 0.9 1.7 0.00 0.06 0.00 71 1014.7
20260506084030 56 269 0.9 1.7 0.00 0.06 0.00 70 1014.7
20260506083558 56 314 0.0 1.7 0.00 0.06 0.00 70 1014.7
20260506083026 57 1 0.9 1.7 0.00 0.06 0.00 70 1014.7
20260506082537 57 223 0.9 1.7 0.00 0.06 0.00 70 1014.8
20260506082040 57 112 1.7 1.7 0.00 0.06 0.00 70 1014.8
20260506081522 57 314 0.9 1.7 0.00 0.06 0.00 69 1014.8
20260506081049 57 46 0.9 2.6 0.00 0.06 0.00 68 1014.8
20260506080551 57 331 1.7 2.6 0.00 0.06 0.00 68 1014.8
20260506073103 57 9 1.7 2.6 0.00 0.11 0.00 68 1014.9
20260506072553 58 302 1.7 2.6 0.00 0.11 0.00 66 1014.9
20260506072044 58 283 1.7 2.6 0.00 0.11 0.00 65 1014.8
20260506071554 58 277 0.9 1.7 0.00 0.11 0.00 66 1014.8
20260506071033 58 314 0.9 1.7 0.00 0.11 0.00 65 1014.8
20260506070543 58 117 0.9 2.6 0.00 0.11 0.00 65 1014.8
20260506062026 61 269 0.9 2.6 0.00 0.16 0.11 57 1014.6
20260506061537 61 223 1.7 2.6 0.00 0.16 0.11 57 1014.5
20260506061040 61 286 1.7 2.6 0.00 0.16 0.11 55 1014.5
20260506060523 61 286 1.7 2.6 0.00 0.16 0.11 54 1014.6
20260506051041 63 293 4.3 7.0 0.00 0.19 0.11 52 1014.1
20260506050545 63 293 4.3 7.0 0.00 0.19 0.11 52 1014.2
20260506045032 63 284 2.6 7.0 0.00 0.22 0.11 52 1014.0
20260506044544 63 312 4.3 7.0 0.00 0.22 0.11 51 1014.0
20260506044042 63 311 3.5 7.8 0.00 0.22 0.11 51 1013.9
20260506043524 64 285 2.6 7.8 0.00 0.22 0.11 51 1013.9
20260506043031 64 284 1.7 5.2 0.00 0.22 0.11 51 1013.9
20260506042540 64 340 1.7 6.1 0.00 0.22 0.11 51 1013.9
20260506042044 64 276 4.3 6.1 0.00 0.22 0.11 50 1013.8
20260506041526 64 318 4.3 5.2 0.00 0.22 0.11 50 1013.7
20260506041032 64 293 3.5 6.1 0.00 0.22 0.11 50 1013.5
20260506040544 64 309 3.5 8.7 0.00 0.22 0.11 49 1013.4
20260506040046 65 304 3.5 8.7 0.00 0.22 0.11 49 1013.4
20260506035548 65 314 4.3 7.8 0.00 0.22 0.11 48 1013.3
20260506035026 65 309 4.3 7.0 0.00 0.22 0.11 48 1013.1
20260506034638 65 300 5.2 7.8 0.00 0.22 0.11 48 1013.1
20260506034035 65 315 4.3 7.8 0.00 0.22 0.11 47 1013.0
20260506033538 65 296 4.3 7.8 0.00 0.22 0.11 47 1013.0
20260506033038 65 284 4.3 9.6 0.00 0.22 0.11 47 1013.0
20260506032549 66 271 5.2 9.6 0.00 0.22 0.11 46 1012.9
20260506032031 66 278 5.2 10.4 0.00 0.22 0.11 46 1012.7
20260506031535 66 295 7.0 12.2 0.00 0.22 0.11 45 1012.6
20260506031042 66 264 7.8 12.2 0.00 0.22 0.11 44 1012.5
20260506030533 67 295 5.2 8.7 0.00 0.22 0.11 41 1012.5
20260506030044 67 309 5.2 11.3 0.00 0.22 0.11 39 1012.3
20260506025525 67 278 5.2 10.4 0.00 0.23 0.11 38 1012.2
20260506025036 67 302 6.1 10.4 0.00 0.23 0.11 37 1012.2
20260506024535 67 264 6.1 13.0 0.00 0.23 0.11 36 1012.1
20260506024046 67 269 6.1 11.3 0.00 0.23 0.11 36 1012.1
20260506023529 68 264 6.1 16.5 0.00 0.23 0.11 35 1011.9
20260506023100 68 288 6.1 12.2 0.00 0.23 0.11 34 1011.8
20260506022538 68 307 7.8 15.6 0.00 0.23 0.11 32 1011.8
20260506022049 68 278 7.8 15.6 0.00 0.23 0.11 31 1011.6
20260506021531 69 248 11.3 15.6 0.00 0.23 0.11 32 1011.6
20260506021103 69 283 8.7 16.5 0.00 0.23 0.11 32 1011.4
20260506020540 69 277 9.6 19.1 0.00 0.23 0.11 32 1011.3
20260506020030 69 298 10.4 19.1 0.00 0.23 0.11 32 1011.2
20260506015610 70 271 10.4 16.5 0.00 0.25 0.11 32 1011.2
20260506015039 70 236 9.6 16.5 0.00 0.25 0.11 31 1011.2
20260506014538 70 274 12.2 21.7 0.00 0.25 0.11 30 1011.3
20260506014029 71 298 10.4 21.7 0.00 0.25 0.11 30 1011.2
20260506013539 71 279 10.4 18.2 0.00 0.25 0.11 31 1011.2
20260506013042 71 257 9.6 18.2 0.00 0.25 0.11 31 1011.2
20260506012545 71 297 10.4 18.2 0.00 0.25 0.11 31 1011.2
20260506012023 71 290 10.4 16.5 0.00 0.25 0.11 32 1011.2
20260506011534 71 317 8.7 17.4 0.00 0.25 0.11 32 1011.2
20260506011038 71 303 10.4 17.4 0.00 0.25 0.11 31 1011.1
20260506010541 71 274 9.6 17.4 0.00 0.25 0.11 32 1011.1
20260506010041 72 297 12.2 17.4 0.00 0.25 0.11 31 1011.1
20260506005532 72 269 9.6 16.5 0.00 0.26 0.11 31 1011.0
20260506005039 72 276 8.7 19.1 0.00 0.26 0.11 31 1010.9
20260506004542 73 266 11.3 18.2 0.00 0.26 0.11 31 1010.9
20260506004024 73 293 11.3 18.2 0.00 0.26 0.11 30 1010.8
20260506003530 73 274 7.0 13.0 0.00 0.26 0.11 28 1010.7
20260506003041 73 303 9.6 15.6 0.00 0.26 0.11 29 1010.8
20260506002545 73 253 9.6 15.6 0.00 0.26 0.11 27 1010.8
20260506002047 74 248 9.6 18.2 0.00 0.26 0.11 26 1010.7
20260506001545 75 265 13.9 18.2 0.00 0.26 0.11 26 1010.8
20260506001055 75 245 11.3 18.2 0.00 0.26 0.11 26 1010.7
20260506000537 75 274 7.8 14.8 0.00 0.26 0.11 26 1010.6
20260506000039 75 278 8.7 15.6 0.00 0.26 0.11 26 1010.5
20260505235538 75 243 10.4 17.4 0.00 0.26 0.11 26 1010.7
20260505235048 76 248 10.4 17.4 0.00 0.26 0.11 26 1010.5
20260505234607 76 274 7.8 18.2 0.00 0.26 0.11 26 1010.5
20260505234025 76 236 10.4 18.2 0.00 0.26 0.11 25 1010.4
20260505233532 76 259 10.4 16.5 0.00 0.26 0.11 25 1010.4
20260505233042 76 305 8.7 16.5 0.00 0.26 0.11 26 1010.3
20260505232543 77 219 8.7 16.5 0.00 0.26 0.11 26 1010.3
20260505232046 77 291 10.4 18.2 0.00 0.26 0.11 25 1010.3
20260505231544 77 264 11.3 18.2 0.00 0.26 0.11 26 1010.3
20260505231033 77 240 9.6 19.1 0.00 0.26 0.11 27 1010.3
20260505230544 76 307 7.0 19.1 0.00 0.26 0.11 27 1010.2
20260505230035 76 221 9.6 17.4 0.00 0.26 0.11 27 1010.3
20260505225603 76 269 8.7 18.2 0.00 0.26 0.11 27 1010.4
20260505225034 76 278 13.0 18.2 0.00 0.26 0.11 28 1010.4
20260505224606 75 243 10.4 16.5 0.00 0.26 0.11 28 1010.3
20260505224048 76 246 5.2 17.4 0.00 0.26 0.11 28 1010.4
20260505223546 76 272 11.3 20.0 0.00 0.26 0.11 28 1010.5
20260505223024 75 274 10.4 21.7 0.00 0.26 0.11 29 1010.5
20260505222546 74 234 9.6 16.5 0.00 0.26 0.11 29 1010.5
20260505222030 74 257 7.8 18.2 0.00 0.26 0.11 28 1010.7
20260505221603 74 225 12.2 18.2 0.00 0.26 0.11 29 1010.8
20260505221042 74 223 10.4 16.5 0.00 0.26 0.11 28 1010.8
20260505220534 74 234 10.4 19.1 0.00 0.26 0.11 28 1010.8
20260505220036 75 209 11.3 19.1 0.00 0.26 0.11 28 1010.8
20260505215540 75 233 10.4 17.4 0.00 0.26 0.11 28 1010.8
20260505215039 75 293 9.6 19.1 0.00 0.26 0.11 29 1010.9
20260505214541 75 227 8.7 20.9 0.00 0.26 0.11 30 1011.1
20260505214045 75 234 12.2 21.7 0.00 0.26 0.11 29 1011.2
20260505213547 75 219 13.0 21.7 0.00 0.26 0.11 29 1011.1
20260505213050 75 206 12.2 21.7 0.00 0.26 0.11 29 1011.3
20260505212529 76 178 11.3 21.7 0.00 0.26 0.11 28 1011.4
20260505212039 76 269 11.3 23.5 0.00 0.26 0.11 29 1011.4
20260505211545 75 262 12.2 23.5 0.00 0.26 0.11 30 1011.4
20260505211028 75 218 12.2 20.9 0.00 0.26 0.11 31 1011.6
20260505210534 75 248 13.9 20.9 0.00 0.26 0.11 30 1011.7
20260505210026 75 215 8.7 19.1 0.00 0.26 0.11 31 1011.7
20260505205545 75 238 10.4 25.2 0.00 0.26 0.11 29 1011.8
20260505205028 75 231 13.9 25.2 0.00 0.26 0.11 29 1011.8
20260505204535 74 255 10.4 20.9 0.00 0.26 0.11 31 1011.8
20260505204025 74 255 13.9 26.9 0.00 0.26 0.11 32 1011.8
20260505203606 74 246 16.5 26.9 0.00 0.26 0.11 32 1011.8
20260505203027 74 219 15.6 23.5 0.00 0.26 0.11 31 1011.9
20260505202559 74 227 13.0 23.5 0.00 0.26 0.11 31 1011.8
20260505202038 74 240 14.8 26.9 0.00 0.26 0.11 32 1011.9
20260505201531 74 211 14.8 26.9 0.00 0.26 0.11 30 1011.9
20260505201043 74 252 15.6 26.9 0.00 0.26 0.11 31 1012.0
20260505200526 74 245 16.5 30.4 0.00 0.26 0.11 32 1012.0
20260505200038 75 225 18.2 30.4 0.00 0.26 0.11 31 1011.9
20260505195545 75 255 13.0 24.3 0.00 0.26 0.11 32 1012.0
20260505195025 75 243 14.8 25.2 0.00 0.26 0.11 31 1012.1
20260505194605 74 295 13.0 25.2 0.00 0.26 0.11 34 1012.0
20260505194027 74 281 12.2 24.3 0.00 0.26 0.11 33 1012.0
20260505193532 74 277 13.9 24.3 0.00 0.26 0.11 35 1012.1
20260505193044 74 262 15.6 24.3 0.00 0.26 0.11 36 1012.1
20260505192534 74 257 13.9 26.1 0.00 0.26 0.11 38 1012.1
20260505192036 73 277 11.3 26.1 0.00 0.26 0.11 40 1012.0
20260505191535 73 252 14.8 21.7 0.00 0.26 0.11 41 1012.1
20260505191026 73 252 13.9 25.2 0.00 0.26 0.11 42 1012.2
20260505190544 73 223 16.5 25.2 0.00 0.26 0.11 42 1012.2
20260505190048 73 262 13.9 21.7 0.00 0.26 0.11 44 1012.2
20260505185524 73 245 13.9 21.7 0.00 0.26 0.11 43 1012.2
20260505185052 73 231 13.0 20.0 0.00 0.26 0.11 44 1012.3
20260505184542 73 260 12.2 19.1 0.00 0.26 0.11 44 1012.3
20260505184047 73 267 13.0 19.1 0.00 0.26 0.11 45 1012.3
20260505183530 72 255 11.3 20.9 0.00 0.26 0.11 46 1012.5
20260505183038 73 257 11.3 20.9 0.00 0.26 0.11 46 1012.5
20260505182550 72 230 9.6 16.5 0.00 0.26 0.11 46 1012.5
20260505182052 72 253 11.3 16.5 0.00 0.26 0.11 48 1012.6
20260505181554 70 236 7.0 11.3 0.00 0.26 0.11 52 1012.6
20260505181102 70 195 2.6 11.3 0.00 0.26 0.11 51 1012.6
20260505180531 70 218 2.6 11.3 0.00 0.26 0.11 51 1012.7
20260505180042 69 253 4.3 12.2 0.00 0.26 0.11 53 1012.8
20260505175543 68 233 5.2 12.2 0.00 0.26 0.11 55 1012.9
20260505175026 68 227 6.1 11.3 0.00 0.26 0.11 55 1013.0
20260505174535 68 284 4.3 8.7 0.00 0.26 0.11 57 1013.0
20260505174026 68 208 6.1 10.4 0.00 0.26 0.11 56 1013.0
20260505173607 68 229 6.1 10.4 0.00 0.26 0.11 57 1013.1
20260505173030 68 276 4.3 7.8 0.00 0.26 0.11 57 1013.1
20260505172536 68 298 5.2 7.8 0.00 0.26 0.11 56 1013.1
20260505172047 68 281 5.2 7.8 0.00 0.26 0.11 58 1013.1
20260505171600 68 4 2.6 11.3 0.00 0.26 0.11 57 1013.1
20260505171043 68 283 8.7 11.3 0.00 0.26 0.11 57 1013.1
20260505170540 67 269 5.2 9.6 0.00 0.26 0.11 59 1013.0
20260505170112 66 324 2.6 5.2 0.00 0.26 0.11 59 1013.0
20260505165603 66 343 2.6 5.2 0.00 0.26 0.11 60 1013.0
20260505165027 66 338 1.7 7.8 0.00 0.26 0.11 59 1012.9
20260505164534 66 213 2.6 8.7 0.00 0.26 0.11 59 1012.9
20260505164046 65 295 3.5 6.1 0.00 0.26 0.11 62 1013.0
20260505163556 65 269 3.5 5.2 0.00 0.26 0.11 64 1012.9
20260505163036 64 250 2.6 6.1 0.00 0.26 0.11 64 1012.9
20260505162533 64 72 1.7 7.8 0.00 0.26 0.11 64 1012.9
20260505162045 64 290 4.3 7.8 0.00 0.26 0.11 66 1013.0
20260505161547 63 352 3.5 7.0 0.00 0.26 0.11 67 1013.0
20260505161029 63 307 1.7 6.1 0.00 0.26 0.11 68 1013.1
20260505160600 63 245 2.6 6.1 0.00 0.26 0.11 69 1013.1
20260505153037 62 290 2.6 7.0 0.00 0.26 0.11 75 1012.9
20260505152541 62 246 4.3 8.7 0.00 0.26 0.11 74 1012.9
20260505152043 61 271 4.3 8.7 0.00 0.26 0.11 76 1012.8
20260505151541 61 286 3.5 8.7 0.00 0.26 0.11 76 1012.9
20260505151052 61 298 5.2 7.8 0.00 0.26 0.11 77 1012.9
20260505150534 60 284 4.3 8.7 0.00 0.26 0.11 78 1013.0
20260505140600 60 279 0.9 2.6 0.01 0.26 0.11 82 1012.7
20260505124549 59 135 2.6 4.3 0.00 0.25 0.10 83 1011.8
20260505124032 59 156 2.6 4.3 0.00 0.25 0.10 83 1011.8
20260505123535 59 160 2.6 5.2 0.00 0.25 0.10 84 1011.7
20260505123039 59 135 2.6 6.1 0.00 0.25 0.10 84 1011.7
20260505122537 58 126 3.5 6.1 0.00 0.25 0.10 84 1011.7
20260505122048 59 144 2.6 4.3 0.00 0.25 0.10 85 1011.6
20260505121538 59 172 2.6 7.0 0.00 0.25 0.10 84 1011.5
20260505121041 59 152 3.5 7.8 0.00 0.25 0.10 83 1011.6
20260505120539 59 149 5.2 9.6 0.00 0.25 0.10 83 1011.8
20260505120029 59 146 4.3 9.6 0.00 0.25 0.10 83 1011.3
20260505115600 59 102 5.2 8.7 0.00 0.25 0.10 84 1011.3
20260505115043 59 141 2.6 7.0 0.00 0.25 0.10 84 1011.6
20260505114546 59 129 4.3 7.0 0.00 0.25 0.10 83 1011.6